Regional Weather Roundup
Issued by NWS

Home | Current Version | Previous Version | Graphics & Text | Print | Product List | Glossary On
Versions: 1 2 3 4 5 6 7 8 9 10 11 12 13 14 15 16 17 18 19 20 21 22 23 24 25 26 27 28 29 30 31 32 33 34 35 36 37 38 39 40 41 42 43 44 45 46 47 48 49 50
000
ASUS45 KPSR 212010
RWRAZ

ARIZONA HOURLY REGIONAL WEATHER ROUNDUP
NATIONAL WEATHER SERVICE PHOENIX AZ
100 PM MST SAT APR 21 2018

NOTE: FAIR INDICATES FEW OR NO CLOUDS BELOW 12,000 FEET WITH NO
SIGNIFICANT WEATHER AND/OR OBSTRUCTIONS TO VISIBILITY.

AZZ001>003-036-212100-
NORTHWEST ARIZONA

CITY           SKY/WX    TMP DP  RH WIND       PRES   REMARKS
BULLHEAD CITY  SUNNY     86  27  11 VRB7      30.00F
KINGMAN        SUNNY     79  23  12 NW9G18    30.12F
$$

AZZ004>008-015-016-018-212100-
NORTH CENTRAL ARIZONA

CITY           SKY/WX    TMP DP  RH WIND       PRES   REMARKS
GRAND CANYON   SUNNY     64  24  21 N8G16     30.22S
WILLIAMS       SUNNY     63  16  16 NW10G20   30.21S
PRESCOTT       SUNNY     70  20  15 NE10G18   30.16F
FLAGSTAFF      SUNNY     63  23  21 VRB7G21   30.21F
PAYSON         SUNNY     70  25  18 W12       30.13F
PAGE           SUNNY     68  29  23 N5        30.13F
$$

AZZ009>014-017-212100-
NORTHEAST ARIZONA

CITY           SKY/WX    TMP DP  RH WIND       PRES   REMARKS
WINSLOW        SUNNY     67  30  25 VRB6      30.17F
SAINT JOHNS    MOSUNNY   63  31  30 N8G22     30.16F
WINDOW ROCK    CLOUDY    62  28  27 NW12G22   30.16S
SHOW LOW       SUNNY     61  28  29 NE12G21   30.22S
$$

AZZ540-542>544-546-548-212100-
GREATER PHOENIX AREA

CITY           SKY/WX    TMP DP  RH WIND       PRES   REMARKS
PHOENIX        MOSUNNY   81  30  15 NW7       29.99F
BUCKEYE        SUNNY     81  30  16 CALM      30.01F
GLENDALE       MOSUNNY   84  30  14 E3        30.01F
LUKE AFB       MOSUNNY   83  32  16 E5        29.98F
DEER VALLEY    SUNNY     81  29  15 SE7       30.00F
SCOTTSDALE     SUNNY     80  33  18 VRB3      30.02F
MESA-FALCON    SUNNY     81  32  17 VRB5      30.01F
MESA-GATEWAY   MOSUNNY   81  30  16 SW5       30.02F
CHANDLER       SUNNY     81  28  15 W5        30.01F
$$

AZZ539-553-212100-
SOUTHWEST MARICOPA COUNTY AND PINAL COUNTY

CITY           SKY/WX    TMP DP  RH WIND       PRES   REMARKS
CASA GRANDE    SUNNY     80  29  15 VRB3      30.02F
GILA BEND      FAIR      85  25  11 NE13      29.97F
$$

AZZ503-504-507>509-212100-
SOUTHEAST ARIZONA

CITY           SKY/WX    TMP DP  RH WIND       PRES   REMARKS
TUCSON         MOSUNNY   79  26  14 NW7       30.05F
DAVIS-MONTHAN  MOSUNNY   80  28  15 W5        30.03F
RYAN FIELD     SUNNY     81  27  13 W3        30.04F
NOGALES        MOSUNNY   77  22  13 N13       30.06F
SIERRA VISTA   MOSUNNY   71  17  13 NW6       30.13
DOUGLAS        SUNNY     74  21  13 N10       30.10F
SAFFORD        SUNNY     74  23  15 S7        30.04F
$$

AZZ532-212100-
SOUTHWEST ARIZONA

CITY           SKY/WX    TMP DP  RH WIND       PRES   REMARKS
YUMA           MOSUNNY   87  31  13 CALM      29.98F
$$

CAZ041-043-047-048-061-525>527-560>570-212100-
SOUTHERN CALIFORNIA

CITY           SKY/WX    TMP DP  RH WIND       PRES   REMARKS
DOWNTOWN L.A.  SUNNY     79  51  37 VRB5      30.01F
L.A. AIRPORT   MOSUNNY   69  50  50 W15       30.03F
SAN DIEGO      PTSUNNY   68  54  60 NW14      30.04R
BURBANK        SUNNY     86  33  15 VRB6      30.01F
ONTARIO        MOSUNNY   85  38  18 SW7       30.01F
RIVERSIDE      SUNNY     86  32  14 MISG      30.00F
PALM SPRINGS   SUNNY     92  25   9 VRB6      29.99F
EL CENTRO NAS  PTSUNNY   89  29  11 E7        29.99F
IMPERIAL       MOSUNNY   88  39  17 VRB5      29.97F
BLYTHE         SUNNY     88  31  13 NE9       29.99F
NEEDLES        SUNNY     87  24  10 VRB3      30.01F
$$

NVZ020-UTZ003-212100-
SOUTHERN NEVADA-UTAH

CITY           SKY/WX    TMP DP  RH WIND       PRES   REMARKS
LAS VEGAS      SUNNY     79  27  14 E7        30.08F
SALT LAKE CITY MOSUNNY   66  28  24 W7G16     30.18F
$$

NMZ009-TXZ055-212100-
NEW MEXICO-WEST TEXAS

CITY           SKY/WX    TMP DP  RH WIND       PRES   REMARKS
ALBUQUERQUE    MOSUNNY   57  29  34 E7        30.12F
EL PASO        MOSUNNY   71  22  15 NW12G21   30.06F
$$


........................KEY........................
SKY/WX - SKY CONDITION/WEATHER
TMP    - TEMPERATURE IN FAHRENHEIT
DP     - DEW POINT IN FAHRENHEIT
RH     - RELATIVE HUMIDITY IN PERCENT
WIND   - DIRECTION AND SPEED IN MILES PER HOUR (MPH)
VRB    - VARIABLE WIND DIRECTION
PRES   - MEAN SEA LEVEL PRESSURE IN INCHES OF MERCURY
         F - FALLING PRESSURE   R - RISING PRESSURE
         S - STEADY PRESSURE
VSB    - VISIBILITY IN MILES
HX     - HEAT INDEX IN FAHRENHEIT
WCI    - WIND CHILL INDEX IN FAHRENHEIT
TC     - TEMPERATURE IN CELSIUS WHICH IS ALSO KNOWN AS
         TEMPERATURE IN CENTIGRADE
AFB    - AIR FORCE BASE
         LUKE AFB IS LUKE AIR FORCE BASE
         DAVIS-MONTHAN IS DAVIS-MONTHAN AIR FORCE BASE
NAS    - NAVAL AIR STATION
         EL CENTRO NAS IS EL CENTRO NAVAL AIR STATION
N/A    - NOT AVAILABLE




USA.gov is the U.S. government's official web portal to all federal, state and local government web resources and services.